{"data":{"norad_id":59800,"epoch":"2026-09-21T04:34:02.547264Z","epoch_age_seconds":114828,"freshness":"FRESH","line1":"1 59800U 24093U   26264.19030726  .00002212  00000+0  89852-4 0  9990","line2":"2 59800  43.0011 184.9004 0001382 263.7262  96.3432 15.27590841132668","mean_motion":15.27590841,"eccentricity":0.0001382,"inclination_deg":43.0011,"raan_deg":184.9004,"arg_perigee_deg":263.7262,"mean_anomaly_deg":96.3432,"bstar":8.9852e-5,"rev_number":13266,"period_min":94.266079721802,"perigee_km":482.06842294533,"apogee_km":483.96484580988,"semimajor_km":6861.1536343776,"source":"CELESTRAK","updated_at":"2026-09-22T09:00:49.074534Z"}}